Current weather by "City, St" or "zip code"  
 

Current Conditions: Vance Air Force Base / Enid, OK

Fair


44.0 F

Last Updated on Oct 24 2020, 7:56 pm CDT
Humidity: 71%
Wind Speed: E 13.8 mph
Barometer 29.99 in
Dewpoint: 35.1 F
Visibility: 10.00 mi
Precip: --
Heat Index: NA
Wind Chill: 37 F
Current conditions at:

Vance Air Force Base / Enid, OK (KEND)

Lat: 36.33333 Lon: 97.91667

Local Radar Image active severe weather and emergency alerts image image weather storm and storm spotter reports image weather observation monitoring service image
Local
Radar
Active
Alerts
Storm Reports Obs
Monitoring

Sign-up For Email & Text Message Weather Alert Notification Services



Advertise Here

Observation History for Vance Air Force Base / Enid, OK


Time Wind
(mph)
Vis
(mi)
Weather Precip (in) Temperature (F) Relative
Humidity
Wind
Chill
(F)
Heat
Index
(F)
Pressure
Air Dwpt altimeter
(in)
sea level
(mb)
Rmks
7:56 pm CDT E 13.8 10.00 Fair -- 44.0 35.1 71% 37 NA 29.99 1016.3
6:56 pm CDT E 9.2 10.00 Fair -- 46.0 33.3 61% 41 NA 29.97 1015.5
5:56 pm CDT E 9.2 10.00 Fair -- 52.0 32.4 47% 49 NA 29.96 1015.1
4:56 pm CDT SE 10.4 10.00 Fair -- 54.0 31.6 43% 51 NA 29.94 1014.3
3:56 pm CDT SE 6.9 10.00 Fair -- 53.0 31.5 43% 51 NA 29.98 1015.6
2:56 pm CDT S 3.5 10.00 Fair -- 52.0 31.5 46% NA NA 30.01 1016.7
1:56 pm CDT N 0.0 10.00 Fair -- 50.0 31.3 49% NA NA 30.06 1018.5
12:56 pm CDT E 6.9 10.00 Fair -- 47.0 31.1 53% 44 NA 30.10 1019.8
11:56 am CDT S 5.8 10.00 Fair -- 45.0 31.6 59% 42 NA 30.15 1021.7
10:56 am CDT SE 3.5 10.00 Mostly Cloudy -- 44.0 32.2 64% NA NA 30.18 1022.8
9:56 am CDT E 6.9 10.00 Overcast -- 40.0 32.9 75% 35 NA 30.20 1023.6
8:56 am CDT NE 4.6 10.00 Overcast -- 39.0 32.7 78% 36 NA 30.20 1023.6
7:56 am CDT E 4.6 10.00 Overcast -- 38.0 32.7 82% 34 NA 30.20 1023.6
6:56 am CDT NE 4.6 10.00 Overcast -- 38.0 32.2 79% 34 NA 30.22 1024.2
5:56 am CDT NE 6.9 10.00 Overcast -- 38.0 31.6 78% 33 NA 30.23 1024.4
4:56 am CDT NE 6.9 10.00 Overcast -- 39.0 31.8 76% 34 NA 30.24 1024.6
3:56 am CDT NE 6.9 10.00 Overcast -- 39.0 32.0 75% 34 NA 30.26 1025.3
2:56 am CDT NE 9.2 10.00 Overcast -- 40.0 31.5 72% 34 NA 30.29 1026.4
1:56 am CDT NE 9.2 10.00 Overcast -- 40.0 32.2 73% 34 NA 30.30 1026.8
12:56 am CDT N 10.4 10.00 Overcast -- 40.0 32.4 73% 33 NA 30.32 1027.5
11:56 pm CDT N 9.2 10.00 Overcast -- 40.0 34.0 80% 34 NA 30.33 1027.9
10:56 pm CDT N 10.4 10.00 Mostly Cloudy -- 39.0 34.5 85% 32 NA 30.33 1027.9
9:56 pm CDT NE 11.5 10.00 Fair -- 38.0 34.3 85% 31 NA 30.33 1028.0
8:56 pm CDT NE 11.5 10.00 Fair -- 40.0 34.2 81% 33 NA 30.33 1028.0

Regional Weather Observation


Enid, Enid Woodring Regional Airport, OK (KWDG)

Partly Cloudy
45.0 F

Alva, Alva Regional Airport, OK (KAVK)

Mostly Cloudy
45.0 F

Blackwell-Tonkawa Municipal Airport, OK (KBKN)

Mostly Cloudy
41.0 F

Ponca City, Ponca City Municipal Airport, OK (KPNC)

Fair
42.0 F

Stillwater, Stillwater Regional Airport, OK (KSWO)

Fair
44.0 F

Watonga, Watonga Airport, OK (KJWG)

Haze
44.0 F